RYR6UZ LOWW-LCPH

Flight info

Callsign RYR6UZ
Flight time 2h 36m
Altitude 38000
Route ARSIN DCT NALOX DCT BABIT DCT LULIK DCT NIVIS DCT OKLOP DCT OBAGI DCT NISVA N131 USALI DCT RODIP DCT BELGI UN131 KULAR UT39 TOMBI M855 DASNI M32 TOBAL
Aircraft B738/M-SDE2E3FGHIRWXY/LB1

Departure

Time 2026-04-24 13:33
Airport Vienna International Airport (LOWW)

Arrival

Time 2026-04-24 16:09
Airport Paphos International Airport (LCPH)
Time Latitude Longitude Altitude Speed Heading
2026-04-24 12:39 48.12172 16.55372 608 ft 0 kts 296°
2026-04-24 13:22 48.12180 16.55348 614 ft 8 kts 296°
2026-04-24 13:22 48.12141 16.55278 616 ft 11 kts 206°
2026-04-24 13:23 48.12050 16.55213 622 ft 16 kts 206°
2026-04-24 13:23 48.11943 16.55189 613 ft 16 kts 184°
2026-04-24 13:23 48.11864 16.55266 616 ft 15 kts 116°
2026-04-24 13:23 48.11819 16.55403 611 ft 14 kts 116°
2026-04-24 13:24 48.11775 16.55538 608 ft 15 kts 116°
2026-04-24 13:24 48.11727 16.55687 614 ft 18 kts 115°
2026-04-24 13:24 48.11666 16.55874 621 ft 22 kts 116°
2026-04-24 13:24 48.11595 16.56090 616 ft 23 kts 115°
2026-04-24 13:25 48.11527 16.56298 620 ft 22 kts 116°
2026-04-24 13:25 48.11466 16.56489 610 ft 23 kts 115°
2026-04-24 13:25 48.11462 16.56502 612 ft 23 kts 115°
2026-04-24 13:25 48.11411 16.56657 613 ft 23 kts 116°
2026-04-24 13:26 48.11400 16.56690 611 ft 23 kts 116°
2026-04-24 13:26 48.11345 16.56857 614 ft 22 kts 119°
2026-04-24 13:26 48.11279 16.57060 614 ft 21 kts 116°
2026-04-24 13:26 48.11216 16.57255 612 ft 21 kts 116°
2026-04-24 13:27 48.11158 16.57433 608 ft 20 kts 115°
2026-04-24 13:27 48.11102 16.57602 613 ft 19 kts 116°
2026-04-24 13:27 48.11044 16.57779 609 ft 19 kts 118°
2026-04-24 13:27 48.10961 16.57926 609 ft 18 kts 134°
2026-04-24 13:28 48.10855 16.58013 610 ft 17 kts 164°
2026-04-24 13:28 48.10740 16.58062 610 ft 17 kts 164°
2026-04-24 13:28 48.10631 16.58108 617 ft 16 kts 164°
2026-04-24 13:28 48.10489 16.58168 622 ft 28 kts 164°
2026-04-24 13:29 48.10313 16.58243 617 ft 19 kts 164°
2026-04-24 13:29 48.10191 16.58294 613 ft 18 kts 164°
2026-04-24 13:29 48.10105 16.58377 609 ft 0 kts 121°
2026-04-24 13:30 48.10104 16.58379 609 ft 1 kts 121°
2026-04-24 13:30 48.10080 16.58441 633 ft 14 kts 120°
2026-04-24 13:31 48.10002 16.58607 612 ft 23 kts 141°
2026-04-24 13:31 48.09973 16.58662 610 ft 1 kts 52°
2026-04-24 13:31 48.09978 16.58660 611 ft 1 kts 354°
2026-04-24 13:31 48.09991 16.58657 619 ft 4 kts 347°
2026-04-24 13:32 48.10001 16.58653 620 ft 14 kts 346°
2026-04-24 13:32 48.10371 16.58497 615 ft 89 kts 345°
2026-04-24 13:32 48.11150 16.58164 616 ft 142 kts 342°
2026-04-24 13:32 48.12202 16.57724 910 ft 167 kts 344°
2026-04-24 13:33 48.13384 16.57259 1446 ft 182 kts 343°
2026-04-24 13:33 48.14504 16.56577 2424 ft 168 kts 320°
2026-04-24 13:33 48.15142 16.55086 3000 ft 183 kts 285°
2026-04-24 13:33 48.15137 16.53125 3479 ft 199 kts 257°
2026-04-24 13:34 48.14347 16.51301 3733 ft 225 kts 225°
2026-04-24 13:34 48.12947 16.50101 4173 ft 240 kts 203°
2026-04-24 13:34 48.11309 16.49376 4606 ft 255 kts 203°
2026-04-24 13:34 48.09599 16.48370 4847 ft 269 kts 208°
2026-04-24 13:35 48.07848 16.47358 5199 ft 277 kts 192°
2026-04-24 13:35 48.05886 16.47440 5925 ft 287 kts 175°
2026-04-24 13:35 48.03915 16.47852 6630 ft 292 kts 175°
2026-04-24 13:35 48.01859 16.48264 7335 ft 296 kts 175°
2026-04-24 13:36 48.00539 16.48518 7813 ft 297 kts 175°
2026-04-24 13:36 47.99822 16.48654 8065 ft 298 kts 175°
2026-04-24 13:36 47.97747 16.48978 8756 ft 301 kts 183°
2026-04-24 13:36 47.95735 16.48276 9424 ft 298 kts 209°
2026-04-24 13:37 47.93895 16.46868 10149 ft 300 kts 212°
2026-04-24 13:37 47.92003 16.45357 10441 ft 319 kts 212°
2026-04-24 13:37 47.89975 16.43751 10606 ft 341 kts 210°
2026-04-24 13:37 47.87623 16.42669 10721 ft 370 kts 185°
2026-04-24 13:38 47.85005 16.43160 10915 ft 391 kts 166°
2026-04-24 13:38 47.82336 16.44265 11219 ft 403 kts 165°
2026-04-24 13:38 47.79631 16.45419 11796 ft 407 kts 165°
2026-04-24 13:38 47.76891 16.46564 12384 ft 411 kts 165°
2026-04-24 13:39 47.74119 16.47688 13008 ft 414 kts 165°
2026-04-24 13:39 47.71336 16.48792 13682 ft 416 kts 165°
2026-04-24 13:39 47.68564 16.49882 14245 ft 419 kts 165°
2026-04-24 13:39 47.65797 16.51295 14697 ft 425 kts 150°
2026-04-24 13:40 47.63486 16.54017 15299 ft 424 kts 130°
2026-04-24 13:40 47.61827 16.57594 15899 ft 422 kts 113°
2026-04-24 13:40 47.60679 16.61615 16419 ft 425 kts 109°
2026-04-24 13:40 47.59549 16.65686 16975 ft 428 kts 110°
2026-04-24 13:41 47.58295 16.69707 17561 ft 433 kts 120°
2026-04-24 13:41 47.56274 16.73052 18034 ft 443 kts 142°
2026-04-24 13:41 47.53560 16.75255 18512 ft 448 kts 159°
2026-04-24 13:41 47.50518 16.76201 19018 ft 449 kts 176°
2026-04-24 13:42 47.47421 16.76486 19618 ft 448 kts 177°
2026-04-24 13:42 47.44297 16.76724 20071 ft 452 kts 178°
2026-04-24 13:42 47.41143 16.76960 20550 ft 454 kts 177°
2026-04-24 13:42 47.38029 16.77210 21085 ft 455 kts 177°
2026-04-24 13:43 47.34852 16.77485 21494 ft 458 kts 176°
2026-04-24 13:43 47.31651 16.77778 21896 ft 462 kts 176°
2026-04-24 13:43 47.28437 16.78081 22333 ft 464 kts 176°
2026-04-24 13:43 47.25199 16.78390 22734 ft 468 kts 176°
2026-04-24 13:44 47.21941 16.78702 23126 ft 471 kts 176°
2026-04-24 13:44 47.18659 16.79016 23526 ft 473 kts 176°
2026-04-24 13:44 47.15371 16.79328 23908 ft 475 kts 176°
2026-04-24 13:44 47.12062 16.79642 24253 ft 477 kts 176°
2026-04-24 13:45 47.08749 16.79956 24581 ft 479 kts 176°
2026-04-24 13:45 47.05411 16.80271 24905 ft 482 kts 175°
2026-04-24 13:45 47.02052 16.80587 25229 ft 484 kts 175°
2026-04-24 13:45 46.98688 16.80904 25540 ft 486 kts 175°
2026-04-24 13:46 46.95303 16.81222 25872 ft 488 kts 175°
2026-04-24 13:46 46.91920 16.81607 26188 ft 489 kts 170°
2026-04-24 13:46 46.88722 16.83045 26416 ft 488 kts 150°
2026-04-24 13:46 46.85918 16.85776 26750 ft 484 kts 137°
2026-04-24 13:47 46.83659 16.89391 27052 ft 481 kts 122°
2026-04-24 13:47 46.82033 16.93122 27390 ft 479 kts 119°
2026-04-24 13:47 46.81606 16.94134 27513 ft 479 kts 119°
2026-04-24 13:47 46.79867 16.98286 27917 ft 478 kts 118°
2026-04-24 13:48 46.78136 17.02426 28344 ft 477 kts 118°
2026-04-24 13:48 46.76403 17.06537 28798 ft 475 kts 119°
2026-04-24 13:48 46.74662 17.10624 29242 ft 474 kts 119°
2026-04-24 13:48 46.72916 17.14689 29659 ft 473 kts 119°
2026-04-24 13:49 46.71163 17.18742 30087 ft 472 kts 119°
2026-04-24 13:49 46.69412 17.22775 30488 ft 470 kts 119°
2026-04-24 13:49 46.67667 17.26784 30887 ft 467 kts 119°
2026-04-24 13:49 46.65925 17.30781 31246 ft 467 kts 119°
2026-04-24 13:50 46.64187 17.34764 31548 ft 467 kts 119°
2026-04-24 13:50 46.62446 17.38751 31897 ft 466 kts 119°
2026-04-24 13:50 46.60709 17.42722 32277 ft 464 kts 118°
2026-04-24 13:50 46.58979 17.46672 32637 ft 462 kts 118°
2026-04-24 13:51 46.57251 17.50612 32964 ft 462 kts 118°
2026-04-24 13:51 46.56109 17.53215 33181 ft 461 kts 118°
2026-04-24 13:51 46.54384 17.57138 33513 ft 460 kts 118°
2026-04-24 13:51 46.52104 17.62318 33980 ft 458 kts 118°
2026-04-24 13:52 46.50944 17.64947 34176 ft 458 kts 118°
2026-04-24 13:52 46.48669 17.70101 34483 ft 458 kts 118°
2026-04-24 13:52 46.47504 17.72737 34634 ft 458 kts 118°
2026-04-24 13:52 46.45780 17.76634 34881 ft 458 kts 118°
2026-04-24 13:53 46.44060 17.80513 35126 ft 457 kts 118°
2026-04-24 13:53 46.42340 17.84389 35369 ft 457 kts 118°
2026-04-24 13:53 46.40618 17.88261 35601 ft 457 kts 118°
2026-04-24 13:53 46.38897 17.92129 35819 ft 457 kts 118°
2026-04-24 13:54 46.37198 17.95940 36060 ft 456 kts 118°
2026-04-24 13:54 46.35458 17.99839 36354 ft 454 kts 118°
2026-04-24 13:54 46.33741 18.03679 36590 ft 454 kts 118°
2026-04-24 13:54 46.32025 18.07513 36763 ft 455 kts 118°
2026-04-24 13:55 46.30328 18.11302 36938 ft 455 kts 118°
2026-04-24 13:55 46.28601 18.15151 37058 ft 457 kts 118°
2026-04-24 13:55 46.25135 18.22859 37049 ft 457 kts 118°
2026-04-24 13:56 46.21676 18.30525 37055 ft 453 kts 118°
2026-04-24 13:56 46.18241 18.38120 37048 ft 451 kts 118°
2026-04-24 13:57 46.14817 18.45672 37044 ft 449 kts 118°
2026-04-24 13:57 46.11399 18.53192 37055 ft 448 kts 118°
2026-04-24 13:58 46.07973 18.60711 37071 ft 449 kts 118°
2026-04-24 13:58 46.04529 18.68248 37044 ft 451 kts 118°
2026-04-24 13:59 46.01067 18.75802 37045 ft 453 kts 118°
2026-04-24 13:59 45.97614 18.83321 37059 ft 454 kts 118°
2026-04-24 14:00 45.94114 18.90897 37071 ft 456 kts 120°
2026-04-24 14:00 45.89728 18.97627 37071 ft 466 kts 134°
2026-04-24 14:01 45.84822 19.03754 37049 ft 467 kts 134°
2026-04-24 14:01 45.79927 19.09892 37039 ft 467 kts 134°
2026-04-24 14:02 45.75060 19.16073 37041 ft 467 kts 134°
2026-04-24 14:02 45.70208 19.22248 37044 ft 466 kts 134°
2026-04-24 14:03 45.65361 19.28402 37035 ft 466 kts 134°
2026-04-24 14:03 45.60512 19.34539 37038 ft 465 kts 134°
2026-04-24 14:04 45.55675 19.40649 37036 ft 464 kts 134°
2026-04-24 14:04 45.50843 19.46734 37038 ft 463 kts 134°
2026-04-24 14:05 45.46014 19.52802 37042 ft 462 kts 134°
2026-04-24 14:05 45.41222 19.58815 37035 ft 461 kts 134°
2026-04-24 14:06 45.36406 19.64844 37038 ft 460 kts 134°
2026-04-24 14:06 45.31595 19.70855 37057 ft 460 kts 134°
2026-04-24 14:07 45.26781 19.76855 37043 ft 460 kts 134°
2026-04-24 14:07 45.22172 19.83117 37046 ft 457 kts 129°
2026-04-24 14:08 45.17799 19.89665 37036 ft 457 kts 129°
2026-04-24 14:08 45.13435 19.96217 37035 ft 458 kts 129°
2026-04-24 14:09 45.09033 20.02746 37032 ft 458 kts 129°
2026-04-24 14:09 45.04615 20.09248 37033 ft 458 kts 129°
2026-04-24 14:10 45.00193 20.15734 37031 ft 458 kts 129°
2026-04-24 14:10 44.95761 20.22218 37022 ft 458 kts 129°
2026-04-24 14:11 44.91357 20.28648 37028 ft 459 kts 129°
2026-04-24 14:12 44.84692 20.38353 37021 ft 459 kts 129°
2026-04-24 14:12 44.80239 20.44818 37023 ft 459 kts 130°
2026-04-24 14:13 44.75779 20.51277 37042 ft 460 kts 130°
2026-04-24 14:13 44.71317 20.57725 37032 ft 461 kts 130°
2026-04-24 14:14 44.66838 20.64182 37032 ft 461 kts 130°
2026-04-24 14:14 44.60113 20.73846 37029 ft 461 kts 130°
2026-04-24 14:15 44.55654 20.80236 37039 ft 461 kts 130°
2026-04-24 14:15 44.51159 20.86663 37013 ft 462 kts 130°
2026-04-24 14:16 44.46661 20.93079 37014 ft 461 kts 130°
2026-04-24 14:17 44.39914 21.02675 37026 ft 461 kts 130°
2026-04-24 14:17 44.33155 21.12255 37018 ft 461 kts 130°
2026-04-24 14:18 44.28656 21.18613 37017 ft 460 kts 130°
2026-04-24 14:18 44.24162 21.24952 37016 ft 459 kts 130°
2026-04-24 14:19 44.19662 21.31284 37033 ft 459 kts 130°
2026-04-24 14:19 44.15038 21.37444 37012 ft 461 kts 134°
2026-04-24 14:20 44.10224 21.43352 37021 ft 461 kts 134°
2026-04-24 14:20 44.05404 21.49237 37015 ft 461 kts 134°
2026-04-24 14:21 44.00606 21.55144 37028 ft 461 kts 134°
2026-04-24 14:21 43.95809 21.61066 37017 ft 461 kts 134°
2026-04-24 14:22 43.91047 21.66936 37016 ft 461 kts 134°
2026-04-24 14:23 43.83841 21.75790 37001 ft 462 kts 134°
2026-04-24 14:23 43.79017 21.81699 37011 ft 462 kts 134°
2026-04-24 14:24 43.74195 21.87593 37006 ft 463 kts 134°
2026-04-24 14:24 43.69366 21.93482 36996 ft 463 kts 134°
2026-04-24 14:25 43.65346 21.98376 36997 ft 463 kts 134°
2026-04-24 14:25 43.59682 22.05257 36998 ft 464 kts 134°
2026-04-24 14:26 43.54829 22.11135 36987 ft 464 kts 134°
2026-04-24 14:26 43.49973 22.16994 36995 ft 463 kts 134°
2026-04-24 14:27 43.45155 22.22798 36989 ft 463 kts 134°
2026-04-24 14:27 43.40306 22.28628 36992 ft 463 kts 134°
2026-04-24 14:28 43.35463 22.34440 37005 ft 462 kts 134°
2026-04-24 14:28 43.30607 22.40254 36986 ft 462 kts 134°
2026-04-24 14:29 43.25764 22.46040 36983 ft 461 kts 134°
2026-04-24 14:29 43.20932 22.51799 37003 ft 460 kts 134°
2026-04-24 14:30 43.16916 22.56578 36993 ft 460 kts 134°
2026-04-24 14:30 43.11261 22.63292 36987 ft 460 kts 134°
2026-04-24 14:31 43.06455 22.68986 36994 ft 460 kts 134°
2026-04-24 14:31 43.01621 22.74701 36992 ft 460 kts 134°
2026-04-24 14:32 42.96781 22.80412 36978 ft 459 kts 134°
2026-04-24 14:32 42.92089 22.86309 36980 ft 458 kts 132°
2026-04-24 14:33 42.87482 22.92293 36974 ft 458 kts 131°
2026-04-24 14:33 42.82854 22.98259 36985 ft 458 kts 132°
2026-04-24 14:34 42.78197 23.04203 36974 ft 458 kts 132°
2026-04-24 14:34 42.73530 23.10132 36969 ft 458 kts 132°
2026-04-24 14:35 42.68867 23.16042 36965 ft 458 kts 132°
2026-04-24 14:35 42.64204 23.21942 36964 ft 458 kts 133°
2026-04-24 14:36 42.59563 23.27802 36964 ft 458 kts 133°
2026-04-24 14:36 42.54885 23.33667 37050 ft 457 kts 132°
2026-04-24 14:37 42.50497 23.39836 34734 ft 490 kts 133°
2026-04-24 14:37 42.47935 23.42794 35202 ft 470 kts 134°
2026-04-24 14:37 42.45528 23.45589 36377 ft 447 kts 134°
2026-04-24 14:38 42.40867 23.51264 36523 ft 452 kts 133°
2026-04-24 14:38 42.38557 23.54158 36656 ft 453 kts 133°
2026-04-24 14:38 42.36243 23.57063 36789 ft 454 kts 133°
2026-04-24 14:38 42.33929 23.59960 36918 ft 455 kts 133°
2026-04-24 14:39 42.31594 23.62874 36948 ft 458 kts 133°
2026-04-24 14:39 42.27665 23.67733 36955 ft 461 kts 133°
2026-04-24 14:40 42.22114 23.74486 36956 ft 463 kts 134°
2026-04-24 14:40 42.18094 23.79358 36957 ft 463 kts 134°
2026-04-24 14:41 42.13334 23.85124 36956 ft 463 kts 134°
2026-04-24 14:41 42.08522 23.90946 36946 ft 461 kts 134°
2026-04-24 14:42 42.03781 23.96673 36937 ft 460 kts 134°
2026-04-24 14:42 41.99023 24.02409 36949 ft 459 kts 134°
2026-04-24 14:43 41.94265 24.08132 36960 ft 459 kts 134°
2026-04-24 14:43 41.89506 24.13845 36933 ft 459 kts 134°
2026-04-24 14:44 41.84750 24.19542 36936 ft 458 kts 134°
2026-04-24 14:44 41.79990 24.25232 36956 ft 458 kts 134°
2026-04-24 14:45 41.75267 24.30866 36952 ft 458 kts 134°
2026-04-24 14:45 41.70504 24.36535 36954 ft 458 kts 134°
2026-04-24 14:46 41.65730 24.42208 36957 ft 459 kts 134°
2026-04-24 14:46 41.60943 24.47882 36943 ft 460 kts 134°
2026-04-24 14:47 41.56152 24.53548 36946 ft 460 kts 134°
2026-04-24 14:47 41.51356 24.59210 36951 ft 460 kts 134°
2026-04-24 14:48 41.46549 24.64872 36959 ft 461 kts 135°
2026-04-24 14:48 41.41745 24.70536 36962 ft 461 kts 134°
2026-04-24 14:49 41.37131 24.76437 36951 ft 460 kts 131°
2026-04-24 14:49 41.32604 24.82445 36957 ft 459 kts 131°
2026-04-24 14:50 41.28087 24.88397 36973 ft 460 kts 131°
2026-04-24 14:50 41.23517 24.94358 36954 ft 460 kts 131°
2026-04-24 14:51 41.18938 25.00299 36964 ft 459 kts 132°
2026-04-24 14:51 41.14367 25.06215 36962 ft 459 kts 133°
2026-04-24 14:52 41.09801 25.12116 36966 ft 458 kts 133°
2026-04-24 14:52 41.05236 25.18003 36966 ft 457 kts 133°
2026-04-24 14:53 41.00680 25.23867 36971 ft 456 kts 133°
2026-04-24 14:53 40.96128 25.29714 36975 ft 456 kts 133°
2026-04-24 14:54 40.91597 25.35523 36971 ft 456 kts 133°
2026-04-24 14:54 40.87026 25.41371 36980 ft 457 kts 133°
2026-04-24 14:55 40.83214 25.46240 36984 ft 458 kts 133°
2026-04-24 14:55 40.77840 25.53088 36987 ft 460 kts 133°
2026-04-24 14:56 40.73223 25.58958 36979 ft 462 kts 133°
2026-04-24 14:56 40.68586 25.64841 36992 ft 463 kts 133°
2026-04-24 14:57 40.63966 25.70692 36985 ft 464 kts 134°
2026-04-24 14:57 40.59304 25.76583 36989 ft 466 kts 134°
2026-04-24 14:58 40.54621 25.82488 36985 ft 467 kts 134°
2026-04-24 14:58 40.49936 25.88395 36990 ft 467 kts 133°
2026-04-24 14:59 40.45559 25.94673 36991 ft 465 kts 128°
2026-04-24 14:59 40.41355 26.01135 36987 ft 465 kts 128°
2026-04-24 15:00 40.37122 26.07555 36987 ft 465 kts 129°
2026-04-24 15:00 40.32856 26.13923 36991 ft 465 kts 129°
2026-04-24 15:01 40.28577 26.20270 36992 ft 465 kts 129°
2026-04-24 15:01 40.24291 26.26621 36993 ft 465 kts 130°
2026-04-24 15:02 40.20034 26.32917 36994 ft 465 kts 130°
2026-04-24 15:02 40.15743 26.39252 36994 ft 465 kts 130°
2026-04-24 15:03 40.11358 26.45492 36996 ft 466 kts 133°
2026-04-24 15:03 40.06717 26.51425 36984 ft 467 kts 135°
2026-04-24 15:04 40.02038 26.57321 36970 ft 468 kts 135°
2026-04-24 15:04 39.97379 26.63247 36973 ft 469 kts 134°
2026-04-24 15:05 39.92713 26.69204 36980 ft 469 kts 135°
2026-04-24 15:05 39.88049 26.75149 36969 ft 469 kts 135°
2026-04-24 15:06 39.83406 26.81053 36959 ft 470 kts 134°
2026-04-24 15:06 39.78725 26.86992 36968 ft 470 kts 135°
2026-04-24 15:07 39.74028 26.92890 36973 ft 469 kts 136°
2026-04-24 15:07 39.69281 26.98710 36965 ft 469 kts 136°
2026-04-24 15:08 39.64527 27.04523 36967 ft 468 kts 136°
2026-04-24 15:08 39.61979 27.07644 36969 ft 468 kts 136°
2026-04-24 15:09 39.59860 27.10237 36965 ft 468 kts 136°
2026-04-24 15:10 39.55128 27.16036 36966 ft 468 kts 136°
2026-04-24 15:10 39.50392 27.21819 36958 ft 468 kts 135°
2026-04-24 15:11 39.46105 27.28147 36963 ft 468 kts 128°
2026-04-24 15:11 39.42054 27.34745 36956 ft 469 kts 128°
2026-04-24 15:12 39.37945 27.41234 36953 ft 469 kts 129°
2026-04-24 15:12 39.31691 27.50982 36952 ft 470 kts 129°
2026-04-24 15:13 39.27515 27.57476 36947 ft 471 kts 129°
2026-04-24 15:13 39.23323 27.63979 36949 ft 471 kts 129°
2026-04-24 15:14 39.19128 27.70471 36947 ft 471 kts 129°
2026-04-24 15:14 39.14925 27.76962 36946 ft 472 kts 129°
2026-04-24 15:15 39.10718 27.83443 36946 ft 471 kts 130°
2026-04-24 15:15 39.06516 27.89911 36940 ft 471 kts 130°
2026-04-24 15:16 39.02314 27.96374 36944 ft 470 kts 130°
2026-04-24 15:16 38.98110 28.02818 36936 ft 470 kts 131°
2026-04-24 15:17 38.93931 28.09211 36936 ft 470 kts 131°
2026-04-24 15:17 38.89724 28.15630 36944 ft 470 kts 131°
2026-04-24 15:18 38.85505 28.22056 36936 ft 471 kts 131°
2026-04-24 15:18 38.81275 28.28484 36945 ft 471 kts 131°
2026-04-24 15:19 38.77042 28.34903 36932 ft 472 kts 132°
2026-04-24 15:19 38.72795 28.41330 36926 ft 472 kts 133°
2026-04-24 15:20 38.68542 28.47751 36931 ft 473 kts 133°
2026-04-24 15:20 38.64278 28.54173 36933 ft 474 kts 133°
2026-04-24 15:21 38.60036 28.60555 36942 ft 474 kts 133°
2026-04-24 15:21 38.55224 28.66194 36949 ft 467 kts 148°
2026-04-24 15:22 38.49871 28.70918 36935 ft 468 kts 149°
2026-04-24 15:23 38.41819 28.78009 36935 ft 469 kts 149°
2026-04-24 15:23 38.33819 28.85138 36928 ft 469 kts 149°
2026-04-24 15:25 38.21307 28.96270 36910 ft 469 kts 150°
2026-04-24 15:26 38.07101 29.08841 36942 ft 467 kts 150°
2026-04-24 15:27 37.91104 29.22918 36934 ft 466 kts 150°
2026-04-24 15:29 37.76044 29.36118 36943 ft 465 kts 151°
2026-04-24 15:31 37.57450 29.52308 36931 ft 462 kts 152°
2026-04-24 15:33 37.36294 29.70592 36932 ft 460 kts 152°
2026-04-24 15:34 37.23164 29.81937 36929 ft 459 kts 152°
2026-04-24 15:35 37.09952 29.93295 36927 ft 460 kts 152°
2026-04-24 15:36 37.04664 29.97817 36948 ft 461 kts 152°
2026-04-24 15:36 36.96707 30.04592 36949 ft 461 kts 152°
2026-04-24 15:37 36.91379 30.09115 36946 ft 463 kts 152°
2026-04-24 15:37 36.86046 30.13639 36941 ft 463 kts 152°
2026-04-24 15:38 36.80711 30.18168 36931 ft 464 kts 152°
2026-04-24 15:38 36.75371 30.22708 36936 ft 464 kts 152°
2026-04-24 15:39 36.70057 30.27214 36949 ft 464 kts 152°
2026-04-24 15:39 36.64712 30.31731 36938 ft 464 kts 152°
2026-04-24 15:40 36.59363 30.36244 36936 ft 464 kts 152°
2026-04-24 15:40 36.54019 30.40749 36895 ft 463 kts 152°
2026-04-24 15:41 36.48712 30.45222 36927 ft 460 kts 152°
2026-04-24 15:41 36.43450 30.49628 36939 ft 459 kts 153°
2026-04-24 15:42 36.38153 30.54061 36934 ft 459 kts 153°
2026-04-24 15:42 36.32854 30.58492 36931 ft 460 kts 153°
2026-04-24 15:43 36.27544 30.62926 36917 ft 460 kts 153°
2026-04-24 15:43 36.22231 30.67355 36930 ft 460 kts 153°
2026-04-24 15:44 36.16914 30.71777 36933 ft 460 kts 153°
2026-04-24 15:44 36.11584 30.76202 36932 ft 461 kts 153°
2026-04-24 15:45 36.06193 30.80441 36916 ft 454 kts 161°
2026-04-24 15:45 36.00341 30.82667 36925 ft 436 kts 179°
2026-04-24 15:46 35.94353 30.83100 36937 ft 430 kts 184°
2026-04-24 15:46 35.88365 30.83403 36937 ft 431 kts 184°
2026-04-24 15:47 35.82365 30.83750 36937 ft 432 kts 183°
2026-04-24 15:47 35.76360 30.84116 36930 ft 431 kts 183°
2026-04-24 15:48 35.70334 30.84481 36372 ft 435 kts 183°
2026-04-24 15:48 35.67318 30.84669 35778 ft 433 kts 182°
2026-04-24 15:48 35.64326 30.85305 35122 ft 447 kts 166°
2026-04-24 15:49 35.61515 30.87083 34495 ft 462 kts 152°
2026-04-24 15:49 35.59081 30.89740 33863 ft 478 kts 136°
2026-04-24 15:49 35.57161 30.93056 33143 ft 484 kts 130°
2026-04-24 15:49 35.55327 30.96533 32352 ft 486 kts 129°
2026-04-24 15:50 35.53520 31.00038 31593 ft 487 kts 128°
2026-04-24 15:50 35.51705 31.03552 30847 ft 487 kts 129°
2026-04-24 15:50 35.49877 31.07050 30074 ft 487 kts 129°
2026-04-24 15:50 35.48028 31.10542 29142 ft 488 kts 129°
2026-04-24 15:51 35.46163 31.14027 28219 ft 488 kts 129°
2026-04-24 15:51 35.44295 31.17499 27299 ft 488 kts 129°
2026-04-24 15:51 35.42418 31.20972 26326 ft 489 kts 128°
2026-04-24 15:51 35.40532 31.24457 25458 ft 489 kts 128°
2026-04-24 15:52 35.38665 31.27909 24792 ft 483 kts 128°
2026-04-24 15:52 35.36817 31.31326 24117 ft 479 kts 128°
2026-04-24 15:52 35.34978 31.34724 23394 ft 476 kts 127°
2026-04-24 15:52 35.33154 31.38092 22607 ft 472 kts 127°
2026-04-24 15:53 35.31348 31.41424 21891 ft 467 kts 127°
2026-04-24 15:53 35.29560 31.44718 21202 ft 462 kts 127°
2026-04-24 15:53 35.27791 31.47974 20526 ft 456 kts 127°
2026-04-24 15:53 35.26042 31.51192 19862 ft 451 kts 127°
2026-04-24 15:54 35.24311 31.54370 19192 ft 446 kts 127°
2026-04-24 15:54 35.22601 31.57509 18546 ft 442 kts 127°
2026-04-24 15:54 35.20902 31.60622 18227 ft 439 kts 127°
2026-04-24 15:54 35.19242 31.63668 18069 ft 422 kts 127°
2026-04-24 15:55 35.17645 31.66602 17951 ft 406 kts 127°
2026-04-24 15:55 35.16112 31.69419 17916 ft 389 kts 127°
2026-04-24 15:55 35.14645 31.72110 17916 ft 372 kts 127°
2026-04-24 15:55 35.13235 31.74694 17812 ft 360 kts 128°
2026-04-24 15:56 35.11856 31.77212 17330 ft 353 kts 128°
2026-04-24 15:56 35.10502 31.79679 16861 ft 347 kts 128°
2026-04-24 15:56 35.09164 31.82113 16401 ft 342 kts 128°
2026-04-24 15:56 35.07847 31.84509 15903 ft 338 kts 128°
2026-04-24 15:57 35.06540 31.86883 15346 ft 337 kts 128°
2026-04-24 15:57 35.05233 31.89255 14763 ft 336 kts 128°
2026-04-24 15:57 35.04372 31.90819 14370 ft 335 kts 128°
2026-04-24 15:57 35.02641 31.93960 13576 ft 333 kts 127°
2026-04-24 15:58 35.01351 31.96299 12923 ft 331 kts 127°
2026-04-24 15:58 35.00070 31.98621 12274 ft 330 kts 127°
2026-04-24 15:58 34.98792 32.00936 11639 ft 328 kts 127°
2026-04-24 15:58 34.97537 32.03206 11039 ft 327 kts 127°
2026-04-24 15:59 34.96270 32.05498 10433 ft 325 kts 126°
2026-04-24 15:59 34.94993 32.07808 9826 ft 324 kts 126°
2026-04-24 15:59 34.93735 32.10083 9182 ft 323 kts 126°
2026-04-24 15:59 34.92488 32.12337 8797 ft 320 kts 126°
2026-04-24 16:00 34.91261 32.14554 8467 ft 318 kts 126°
2026-04-24 16:00 34.90026 32.16782 8132 ft 315 kts 126°
2026-04-24 16:00 34.89705 32.17360 8054 ft 315 kts 126°
2026-04-24 16:00 34.88479 32.19568 7713 ft 313 kts 126°
2026-04-24 16:01 34.87246 32.21742 7406 ft 310 kts 128°
2026-04-24 16:01 34.85940 32.23816 7090 ft 308 kts 129°
2026-04-24 16:01 34.84618 32.25858 6780 ft 306 kts 130°
2026-04-24 16:01 34.83233 32.27806 6451 ft 303 kts 136°
2026-04-24 16:02 34.81754 32.29584 6194 ft 293 kts 137°
2026-04-24 16:02 34.80305 32.31277 5919 ft 285 kts 137°
2026-04-24 16:02 34.78910 32.32948 5605 ft 279 kts 136°
2026-04-24 16:02 34.77550 32.34627 5149 ft 279 kts 135°
2026-04-24 16:03 34.76189 32.36300 4717 ft 278 kts 136°
2026-04-24 16:03 34.74820 32.37952 4264 ft 277 kts 135°
2026-04-24 16:03 34.73517 32.39666 3868 ft 275 kts 128°
2026-04-24 16:03 34.72397 32.41546 3468 ft 271 kts 124°
2026-04-24 16:04 34.71339 32.43403 3088 ft 266 kts 126°
2026-04-24 16:04 34.70226 32.45125 2853 ft 256 kts 128°
2026-04-24 16:04 34.69148 32.46795 2604 ft 248 kts 126°
2026-04-24 16:04 34.68122 32.48450 2287 ft 242 kts 125°
2026-04-24 16:05 34.66223 32.51594 2231 ft 220 kts 121°
2026-04-24 16:05 34.65588 32.53256 2395 ft 216 kts 103°
2026-04-24 16:06 34.65631 32.56642 2396 ft 189 kts 69°
2026-04-24 16:06 34.66032 32.58137 1992 ft 186 kts 68°
2026-04-24 16:06 34.67553 32.59837 1651 ft 156 kts 344°
2026-04-24 16:07 34.68265 32.58998 1482 ft 144 kts 296°
2026-04-24 16:07 34.68689 32.57903 1362 ft 142 kts 297°
2026-04-24 16:07 34.69569 32.55761 1216 ft 147 kts 290°
2026-04-24 16:08 34.69922 32.54570 1067 ft 151 kts 291°
2026-04-24 16:08 34.70651 32.52323 560 ft 139 kts 292°
2026-04-24 16:09 34.71327 32.50089 136 ft 141 kts 291°
2026-04-24 16:09 34.71660 32.49015 45 ft 125 kts 290°
2026-04-24 16:09 34.71838 32.48418 44 ft 97 kts 290°
2026-04-24 16:09 34.71998 32.47916 45 ft 9 kts 280°
2026-04-24 16:10 34.71984 32.47925 43 ft 7 kts 96°
2026-04-24 16:11 34.71900 32.48214 44 ft 30 kts 110°
2026-04-24 16:11 34.71825 32.48409 45 ft 15 kts 155°
2026-04-24 16:11 34.71723 32.48382 45 ft 16 kts 201°
2026-04-24 16:12 34.71497 32.48283 45 ft 19 kts 200°
2026-04-24 16:12 34.71404 32.48289 45 ft 12 kts 124°
2026-04-24 16:12 34.71345 32.48394 45 ft 5 kts 194°
2026-04-24 16:13 34.71313 32.48400 45 ft 5 kts 162°
2026-04-24 16:13 34.71274 32.48417 45 ft 0 kts 160°
2026-04-24 16:14 34.71273 32.48417 45 ft 0 kts 160°